Wooster, OH

3:35 AM EDT on May 23, 2017 (GMT -0400)
Wayne County

Weather History for KBJJ - June, 2013

Change the Weather History Date:

Tuesday, June 4, 2013

  Actual Average Record
Temperature  
Mean Temperature 56 °F -  
Max Temperature 71 °F 71 °F 91 °F (2011)
Min Temperature 42 °F 51 °F 42 °F (2001)
Degree Days  
Heating Degree Days 9    
Growing Degree Days 6 (Base 50)    
Moisture  
Dew Point 43 °F    
Average Humidity 61    
Maximum Humidity 93    
Minimum Humidity 39    
Precipitation  
Precipitation 0.00 in - - ()
Sea Level Pressure  
Sea Level Pressure 30.16 in    
Wind  
Wind Speed 3 mph (North)    
Max Wind Speed 13 mph    
Max Gust Speed -    
Visibility 10 miles    
Events      
Averages and records for this station are not official NWS values.
T = Trace of Precipitation, MM = Missing Value Source: NWS Daily Summary

Daily Weather History Graph

Daily Weather History Graph

Search for Another Location

Airport or City:

Trip Planner

Search our weather history database for the weather conditions in past years. The results will help you decide how hot, cold, wet, or windy it might be!

Date:

Astronomy

Jun. 04, 2013 Rise Set
Actual Time 5:56 AM EDT 8:55 PM EDT
Civil Twilight 5:23 AM EDT 9:28 PM EDT
Nautical Twilight 4:42 AM EDT 10:10 PM EDT
Astronomical Twilight 3:53 AM EDT 10:59 PM EDT
Moon 3:27 AM EDT (6/4) 5:22 PM EDT (6/4)
Length of Visible Light 16h 04m
Length of Day
14h 58m
Waning Crescent, 14% of the Moon is Illuminated
Jun 4
Waning Crescent
Jun 8
New
Jun 16
First Quarter
Jun 23
Full
Jun 30
Last Quarter

Hourly Weather History & Observations

Time (EDT) Temp. Dew Point Humidity Pressure Visibility Wind Dir Wind Speed Gust Speed Precip Events Conditions
12:56 AM 45.0 °F 42.1 °F 90% 30.13 in 10.0 mi Calm Calm - N/A   Clear
1:56 AM 44.1 °F 42.1 °F 93% 30.12 in 9.0 mi Calm Calm - N/A   Clear
2:56 AM 44.1 °F 41.0 °F 89% 30.12 in 9.0 mi Calm Calm - N/A   Clear
3:56 AM 42.1 °F 39.9 °F 92% 30.12 in 9.0 mi Calm Calm - N/A   Clear
4:56 AM 43.0 °F 39.9 °F 89% 30.13 in 10.0 mi Calm Calm - N/A   Clear
5:56 AM 43.0 °F 39.9 °F 89% 30.14 in 8.0 mi Calm Calm - N/A   Clear
6:56 AM 45.0 °F 42.1 °F 90% 30.16 in 8.0 mi Calm Calm - N/A   Clear
7:56 AM 52.0 °F 45.0 °F 77% 30.17 in 10.0 mi Calm Calm - N/A   Clear
8:56 AM 59.0 °F 45.0 °F 60% 30.19 in 10.0 mi Calm Calm - N/A   Clear
9:56 AM 63.0 °F 43.0 °F 48% 30.19 in 10.0 mi North 8.1 mph - N/A   Clear
10:56 AM 64.0 °F 45.0 °F 50% 30.18 in 10.0 mi North 5.8 mph - N/A   Clear
11:56 AM 66.0 °F 44.1 °F 45% 30.18 in 10.0 mi North 9.2 mph - N/A   Clear
12:56 PM 66.9 °F 43.0 °F 42% 30.19 in 10.0 mi NNW 6.9 mph - N/A   Clear
1:56 PM 68.0 °F 46.0 °F 45% 30.17 in 10.0 mi NW 3.5 mph - N/A   Clear
2:56 PM 69.1 °F 44.1 °F 40% 30.16 in 10.0 mi NNW 6.9 mph - N/A   Clear
3:56 PM 70.0 °F 45.0 °F 41% 30.16 in 10.0 mi NNE 5.8 mph - N/A   Clear
4:56 PM 70.0 °F 44.1 °F 39% 30.15 in 10.0 mi North 8.1 mph - N/A   Clear
5:56 PM 69.1 °F 43.0 °F 39% 30.15 in 10.0 mi North 12.7 mph - N/A   Clear
6:56 PM 66.9 °F 43.0 °F 42% 30.16 in 10.0 mi North 12.7 mph - N/A   Clear
7:56 PM 63.0 °F 42.1 °F 46% 30.16 in 10.0 mi North 6.9 mph - N/A   Clear
8:56 PM 59.0 °F 39.0 °F 48% 30.16 in 10.0 mi North 5.8 mph - N/A   Clear
9:56 PM 57.0 °F 41.0 °F 55% 30.17 in 10.0 mi North 6.9 mph - N/A   Clear
10:56 PM 55.9 °F 41.0 °F 57% 30.17 in 10.0 mi NNE 5.8 mph - N/A   Clear
11:56 PM 53.1 °F 42.1 °F 66% 30.17 in 10.0 mi NNE 4.6 mph - N/A   Clear